Simultaneous Nadir Overpasses (SNOs) Predictions

Prediction of SNOs between FY3D and AQUA Satellite Orbit:

Table of predicted SNOs for the next 14.0 days since TLE Epoch: 7/13/2019
Index Date (FY3D) Time (FY3D) Lat,Lon (FY3D) SZA (FY3D ) Date (AQUA) Time (AQUA) Lat,Lon (AQUA) SZA (AQUA ) Distance(km) Time Diff (sec)
1 07/14/2019 02:53:18 69.17, 2.62 83.75 07/14/2019 02:53:33 69.17, 2.64 83.73 1.12 15
2 07/14/2019 03:43:14 -71.81, 174.16 99.11 07/14/2019 03:42:13 -71.82, 174.22 99.07 2.10 61
3 07/16/2019 19:09:47 69.06, 118.35 84.29 07/16/2019 19:10:03 69.06, 118.38 84.27 1.27 16
4 07/16/2019 19:59:42 -71.76, -70.05 98.63 07/16/2019 19:58:42 -71.76, -69.99 98.59 2.31 60
5 07/19/2019 11:26:13 69.11,-125.69 84.70 07/19/2019 11:26:30 69.11,-125.67 84.68 1.00 17
6 07/19/2019 12:16:08 -71.80, 45.92 98.21 07/19/2019 12:15:09 -71.81, 45.97 98.18 2.04 59
7 07/22/2019 03:42:38 69.21, -9.67 85.10 07/22/2019 03:42:56 69.21, -9.66 85.08 0.32 18
8 07/22/2019 04:32:33 -71.90, 161.98 97.82 07/22/2019 04:31:35 -71.90, 162.02 97.77 1.30 58
9 07/24/2019 19:59:00 69.42, 106.51 85.41 07/24/2019 19:59:19 69.41, 106.49 85.40 0.78 19




NCC Satellite Simultaneous Nadir Overpasses (SNOs) Prediction Service
